[[{"header":{"parameterUnit":"m.s-1","parameterCategory":1,"la1":30.2991,"la2":30.254,"lo1":-89.0895,"lo2":-89.0444,"dy":0.0017,"dx":0.0017,"nx":28,"ny":28,"refTime":"2024-12-20T03:00:00:Z","depth":0,"parameterNumber":2,"parameterNumberName":"U-component_of_WINDS"},"data":[0,0,0,0,0,0,0,0,0,0,0,0,0,0,0,0,0,0,0,0,0,0,0,0,0,0,0,0,0,0,0,0,0,0,0,0,0,0,0,0,0,0,0,0,0,0,0,0,0,0,0,0,0,0,0,0,0,0,1.2696,1.2696,0,1.2737,1.2738,1.2738,1.2704,1.2703,1.2701,1.27,1.2745,1.2748,1.275,0,0,0,0,0,0,0,0,0,0,0,0,0,1.259,1.2592,1.2696,1.2696,1.2697,1.2737,1.2738,1.2739,1.2704,1.2703,1.2701,1.2699,1.2745,1.2748,1.2751,0,0,0,0,0,0,0,0,0,0,0,0,0,1.2634,1.2593,1.2696,1.2685,1.2684,1.2737,1.2738,1.2739,1.2705,1.2703,1.27,1.2698,1.2744,1.2747,1.2751,1.2818,0,0,1.2763,1.2765,0,0,0,0,0,0,0,0,1.2632,1.2638,1.2686,1.2685,1.2685,1.2713,1.2717,1.2765,1.2705,1.2697,1.27,1.2697,1.2737,1.2741,1.2754,1.282,1.2822,1.2763,1.2766,1.2767,1.2768,0,0,0,0,0,0,0,1.2629,1.2636,1.2712,1.2686,1.2686,1.2679,1.2683,1.2726,1.2729,1.2698,1.2695,1.27,1.2736,1.275,1.2754,1.2823,1.2763,1.2766,1.2769,1.277,1.2949,1.2952,0,0,0,0,0,0,1.2626,1.2634,1.2711,1.2714,1.2652,1.2682,1.2687,1.2706,1.2728,1.2729,1.2702,1.2699,1.2745,1.275,1.2756,1.2837,1.2767,1.2771,1.2773,1.2947,1.295,1.2953,0,0,0,0,0,0,1.2624,1.2634,1.2709,1.2673,1.2682,1.2686,1.2709,1.2708,1.2722,1.2732,1.2732,1.2716,1.2743,1.2751,1.2803,1.2838,1.2772,1.2776,1.2944,1.2948,1.2951,1.3,0,0,0,0,0,0,1.2621,1.2633,1.2658,1.2674,1.2684,1.2755,1.2711,1.2711,1.2729,1.2724,1.2744,1.2746,1.2742,1.2798,1.2807,1.2843,1.2779,1.2941,1.2946,1.295,1.2995,1.3005,1.3013,0,0,0,0,0,1.2618,1.267,1.2659,1.2669,1.2715,1.2757,1.2763,1.2757,1.2732,1.2757,1.2763,1.2745,1.2833,1.2803,1.2814,1.2851,1.2939,1.2944,1.295,1.2991,1.3003,1.3013,0,0,0,0,0,0,1.2658,1.2672,1.266,1.2719,1.2737,1.2751,1.2783,1.2769,1.2796,1.2791,1.2783,1.2787,1.2843,1.2852,1.2819,1.2918,1.2882,1.289,1.291,1.2921,1.293,1.2927,1.2782,0,0,0,0,0,1.2674,1.2706,1.2716,1.2767,1.2777,1.2779,1.2797,1.279,1.2809,1.2817,1.2827,1.2847,1.2879,1.2901,1.2931,1.2996,1.3001,1.3027,1.3036,1.3043,1.3051,1.3088,1.31,1.2971,1.2971,1.297,0,0,1.2707,1.2718,1.2739,1.2776,1.2789,1.2824,1.2785,1.2823,1.2849,1.2823,1.2874,1.2882,1.2904,1.2964,1.2991,1.2973,1.3087,1.305,1.3056,1.3059,1.3095,1.3107,1.3118,1.2974,1.2974,1.2973,0,0,1.2785,1.2796,1.284,1.2855,1.2875,1.2876,1.2887,1.2904,1.2908,1.2958,1.294,1.2972,1.3027,1.3044,1.3059,1.3146,1.313,1.3156,1.3202,1.3239,1.3249,1.3258,1.329,1.3302,1.3163,1.3163,1.3163,0,1.2823,1.2874,1.2865,1.2905,1.2922,1.29,1.2946,1.296,1.299,1.3003,1.2983,1.3053,1.3066,1.313,1.3151,1.3164,1.3178,1.3153,1.3248,1.3257,1.3265,1.3296,1.3308,1.3166,1.3165,1.3165,1.3165,0,1.2921,1.2956,1.299,1.3019,1.304,1.3083,1.3082,1.3105,1.3097,1.3101,1.3154,1.3169,1.3202,1.3217,1.321,1.3281,1.327,1.3249,1.3213,1.3281,1.331,1.3321,1.317,1.3169,1.3168,1.3167,0,0,1.3025,1.3049,1.3062,1.3076,1.3097,1.3125,1.3168,1.32,1.322,1.3242,1.3279,1.3327,1.3308,1.3326,1.3321,1.3353,1.3422,1.3328,1.3329,1.3346,1.3504,1.352,1.3534,1.3412,1.3414,1.3416,1.3502,0,1.3105,1.3178,1.3172,1.3241,1.3275,1.3255,1.3292,1.331,1.3315,1.3345,1.3351,1.3386,1.3358,1.3369,1.3399,1.3407,1.3454,1.3401,1.3447,1.3449,1.3443,1.3548,1.3565,1.3646,1.3513,1.3515,1.3517,0,1.3208,1.3233,1.3305,1.3323,1.3337,1.3371,1.3401,1.3429,1.345,1.3452,1.3473,1.3463,1.3507,1.347,1.3532,1.3496,1.3515,1.3522,1.3525,1.353,1.3487,1.3557,1.3672,1.3684,1.3534,1.3532,1.3531,0,1.3278,1.333,1.3381,1.3393,1.3415,1.3439,1.3449,1.3468,1.3488,1.3515,1.3529,1.356,1.3578,1.3603,1.3603,1.3575,1.3667,1.3629,1.3671,1.3671,1.3691,1.369,1.3812,1.3702,1.3702,1.3702,1.3701,0,1.3368,1.3414,1.3413,1.3444,1.3495,1.3489,1.354,1.3548,1.3565,1.3599,1.3583,1.3615,1.3612,1.3645,1.3645,1.3698,1.3706,1.3709,1.3709,1.3711,1.3711,1.3724,1.3719,1.3705,1.3704,1.3703,1.3703,0,1.3456,1.3457,1.3511,1.3527,1.3532,1.357,1.3584,1.3615,1.3619,1.3662,1.3671,1.3678,1.3716,1.3718,1.3762,1.3762,1.3827,1.3819,1.3819,1.3818,1.3861,1.3857,1.3996,1.4014,1.3892,1.3893,1.3894,0,1.3514,1.3548,1.3569,1.359,1.3602,1.3636,1.3656,1.3652,1.3674,1.3702,1.373,1.3766,1.3795,1.3857,1.3867,1.3901,1.3895,1.3942,1.3901,1.3902,1.3898,1.3896,1.39,1.395,1.3951,1.3952,1.3953,0,1.3617,1.3616,1.3646,1.3676,1.3701,1.3725,1.3748,1.3766,1.3765,1.3791,1.3829,1.3852,1.3897,1.3934,1.3968,1.398,1.3968,1.3966,1.3978,1.3981,1.398,1.3983,1.3842,1.3963,1.3962,1.3961,1.3961,1.396,1.3693,1.3723,1.3742,1.3777,1.3793,1.3814,1.3844,1.3852,1.3884,1.3919,1.3915,1.3959,1.3981,1.4024,1.4039,1.4074,1.4059,1.4075,1.408,1.4084,1.409,1.3974,1.408,1.408,1.408,1.408,1.4079,0,1.3796,1.3808,1.3839,1.3871,1.3898,1.3883,1.3907,1.3932,1.397,1.3991,1.402,1.4065,1.4101,1.4114,1.415,1.4176,1.4171,1.4185,1.4184,1.4187,1.4101,1.4087,1.4189,1.4189,1.4189,1.4189,1.4189,1.4189,1.3853,1.3904,1.3906,1.3966,1.3977,1.4019,1.4034,1.4055,1.4072,1.4123,1.4153,1.4161,1.4179,1.4216,1.425,1.4253,1.4267,1.4285,1.4285,1.4204,1.4193,1.4183,1.417,1.4287,1.4288,1.4369,1.437,1.4371]},{"header":{"parameterUnit":"m.s-1","parameterCategory":1,"la1":30.2991,"la2":30.254,"lo1":-89.0895,"lo2":-89.0444,"dy":0.0017,"dx":0.0017,"nx":28,"ny":28,"refTime":"2024-12-20T03:00:00:Z","depth":0,"parameterNumber":3,"parameterNumberName":"V-component_of_WINDS"},"data":[0,0,0,0,0,0,0,0,0,0,0,0,0,0,0,0,0,0,0,0,0,0,0,0,0,0,0,0,0,0,0,0,0,0,0,0,0,0,0,0,0,0,0,0,0,0,0,0,0,0,0,0,0,0,0,0,0,0,-3.141,-3.1411,0,-3.1556,-3.1557,-3.1559,-3.1553,-3.1551,-3.1549,-3.1547,-3.1697,-3.1703,-3.1709,0,0,0,0,0,0,0,0,0,0,0,0,0,-3.1128,-3.1134,-3.141,-3.1412,-3.1413,-3.1555,-3.1557,-3.1559,-3.1554,-3.1551,-3.1549,-3.1546,-3.1695,-3.1702,-3.1709,0,0,0,0,0,0,0,0,0,0,0,0,0,-3.126,-3.1135,-3.1409,-3.1428,-3.1431,-3.1555,-3.1557,-3.156,-3.1554,-3.1551,-3.1548,-3.1545,-3.1693,-3.1702,-3.171,-3.1826,0,0,-3.1737,-3.1741,0,0,0,0,0,0,0,0,-3.1253,-3.127,-3.1423,-3.1427,-3.143,-3.1533,-3.1513,-3.1649,-3.1555,-3.1507,-3.1547,-3.1544,-3.1645,-3.1658,-3.1692,-3.1833,-3.1839,-3.1738,-3.1743,-3.1747,-3.175,0,0,0,0,0,0,0,-3.1243,-3.1264,-3.1467,-3.1425,-3.143,-3.1429,-3.1444,-3.1539,-3.1592,-3.1511,-3.1511,-3.1528,-3.1646,-3.1683,-3.1695,-3.1842,-3.1738,-3.1746,-3.1751,-3.1755,-3.2088,-3.2091,0,0,0,0,0,0,-3.123,-3.1256,-3.1463,-3.1472,-3.1332,-3.1437,-3.1454,-3.1503,-3.1591,-3.1601,-3.1531,-3.1528,-3.167,-3.1685,-3.17,-3.1844,-3.1747,-3.1755,-3.176,-3.2085,-3.2089,-3.2093,0,0,0,0,0,0,-3.1224,-3.1249,-3.1457,-3.1364,-3.1391,-3.1445,-3.15,-3.1508,-3.1544,-3.1605,-3.1615,-3.1559,-3.1668,-3.1688,-3.1795,-3.1849,-3.1759,-3.1767,-3.208,-3.2086,-3.2091,-3.2131,0,0,0,0,0,0,-3.1216,-3.1246,-3.1291,-3.1365,-3.1396,-3.1549,-3.1504,-3.1513,-3.156,-3.1557,-3.1634,-3.1644,-3.1667,-3.1782,-3.1804,-3.186,-3.1774,-3.2076,-3.2083,-3.2089,-3.2125,-3.2137,-3.2147,0,0,0,0,0,-3.1206,-3.1296,-3.1293,-3.1318,-3.1452,-3.1552,-3.157,-3.1594,-3.1564,-3.1609,-3.1649,-3.1642,-3.1839,-3.1793,-3.1818,-3.1877,-3.2073,-3.2081,-3.2089,-3.212,-3.2135,-3.2147,0,0,0,0,0,0,-3.1226,-3.1306,-3.1304,-3.142,-3.1479,-3.1551,-3.1609,-3.1608,-3.1678,-3.1672,-3.17,-3.1717,-3.1826,-3.1861,-3.1809,-3.1995,-3.1952,-3.1966,-3.1968,-3.1982,-3.1993,-3.1983,-3.1782,0,0,0,0,0,-3.1243,-3.1318,-3.1384,-3.148,-3.151,-3.1554,-3.1599,-3.1613,-3.1676,-3.1701,-3.1748,-3.181,-3.1886,-3.1935,-3.2009,-3.213,-3.2148,-3.2182,-3.2193,-3.2202,-3.2214,-3.2283,-3.23,-3.2119,-3.2119,-3.2119,0,0,-3.1281,-3.1334,-3.1379,-3.1485,-3.1533,-3.1611,-3.1576,-3.1658,-3.1717,-3.1713,-3.1819,-3.1855,-3.1926,-3.2041,-3.2094,-3.2075,-3.2268,-3.2212,-3.2219,-3.2226,-3.2293,-3.231,-3.2326,-3.2124,-3.2123,-3.2123,0,0,-3.139,-3.1437,-3.1523,-3.1572,-3.1645,-3.1674,-3.1695,-3.1767,-3.1792,-3.1897,-3.1897,-3.1967,-3.2097,-3.2148,-3.2191,-3.2321,-3.2318,-3.2344,-3.2402,-3.2469,-3.2484,-3.2497,-3.2545,-3.2562,-3.2355,-3.2355,-3.2355,0,-3.1428,-3.1544,-3.1568,-3.1652,-3.17,-3.17,-3.1789,-3.1835,-3.1928,-3.1962,-3.1938,-3.2103,-3.215,-3.2279,-3.2311,-3.2344,-3.2371,-3.2336,-3.2479,-3.2493,-3.2505,-3.2552,-3.257,-3.2358,-3.2357,-3.2357,-3.2357,0,-3.1589,-3.1669,-3.1731,-3.1821,-3.1875,-3.1961,-3.1999,-3.2051,-3.206,-3.2092,-3.2201,-3.2258,-3.2344,-3.2375,-3.2384,-3.2506,-3.2492,-3.2473,-3.2432,-3.2525,-3.257,-3.2588,-3.2362,-3.2361,-3.236,-3.2359,0,0,-3.1715,-3.1818,-3.184,-3.1883,-3.1963,-3.2027,-3.2113,-3.2197,-3.2243,-3.2307,-3.2382,-3.2492,-3.2477,-3.2526,-3.2541,-3.2599,-3.2702,-3.2574,-3.2577,-3.2598,-3.2842,-3.2857,-3.2878,-3.2699,-3.2703,-3.2705,-3.2837,0,-3.1834,-3.1988,-3.2012,-3.2148,-3.2224,-3.2226,-3.2302,-3.236,-3.2392,-3.2462,-3.2497,-3.2577,-3.2549,-3.2579,-3.2636,-3.2677,-3.2752,-3.2667,-3.2771,-3.2775,-3.2756,-3.2901,-3.2917,-3.3038,-3.2855,-3.2858,-3.286,0,-3.1994,-3.2064,-3.2207,-3.2279,-3.2312,-3.238,-3.246,-3.2526,-3.2593,-3.2613,-3.2668,-3.2676,-3.2768,-3.272,-3.2848,-3.279,-3.2834,-3.286,-3.2865,-3.2878,-3.2824,-3.292,-3.3077,-3.3097,-3.2887,-3.2885,-3.2883,0,-3.2075,-3.2204,-3.2308,-3.2343,-3.2429,-3.2477,-3.2516,-3.2579,-3.2629,-3.2699,-3.2732,-3.2812,-3.2856,-3.2918,-3.2948,-3.291,-3.3075,-3.3029,-3.3095,-3.3095,-3.3132,-3.3129,-3.3301,-3.3155,-3.3155,-3.3155,-3.3154,0,-3.2208,-3.2296,-3.2345,-3.2409,-3.2509,-3.2536,-3.2634,-3.2671,-3.2728,-3.2799,-3.2805,-3.2873,-3.2907,-3.298,-3.3004,-3.3108,-3.3127,-3.3147,-3.3153,-3.3148,-3.3146,-3.3179,-3.3172,-3.3159,-3.3158,-3.3157,-3.3157,0,-3.2316,-3.2352,-3.2466,-3.2538,-3.2558,-3.2629,-3.2692,-3.2754,-3.2786,-3.2877,-3.29,-3.295,-3.3037,-3.3073,-3.3178,-3.3195,-3.3314,-3.3312,-3.3292,-3.3295,-3.336,-3.3354,-3.3561,-3.3591,-3.3422,-3.3424,-3.3425,0,-3.2399,-3.2468,-3.2548,-3.2597,-3.2636,-3.2714,-3.2765,-3.2795,-3.2848,-3.293,-3.2983,-3.307,-3.3141,-3.3279,-3.3325,-3.3407,-3.3409,-3.3475,-3.3421,-3.3415,-3.3413,-3.341,-3.3418,-3.3486,-3.3488,-3.3489,-3.349,0,-3.2545,-3.256,-3.2633,-3.2713,-3.2774,-3.2839,-3.2902,-3.2942,-3.2981,-3.304,-3.3129,-3.3184,-3.3293,-3.3379,-3.3464,-3.3504,-3.3505,-3.3507,-3.3527,-3.3524,-3.3511,-3.3522,-3.3322,-3.3503,-3.3501,-3.35,-3.35,-3.3499,-3.2645,-3.2707,-3.2774,-3.2856,-3.2906,-3.2966,-3.3029,-3.3069,-3.3143,-3.3234,-3.3246,-3.3342,-3.3409,-3.3522,-3.3566,-3.3642,-3.3625,-3.3654,-3.3661,-3.3669,-3.3675,-3.3497,-3.3657,-3.3657,-3.3656,-3.3656,-3.3656,0,-3.2793,-3.2836,-3.2911,-3.3,-3.3065,-3.3059,-3.3129,-3.3184,-3.3268,-3.333,-3.34,-3.3503,-3.3587,-3.3641,-3.3726,-3.3777,-3.378,-3.3799,-3.3797,-3.3807,-3.3683,-3.3659,-3.3795,-3.3795,-3.3795,-3.3795,-3.3795,-3.3795,-3.2878,-3.2983,-3.3006,-3.3137,-3.3179,-3.3273,-3.3314,-3.3369,-3.3419,-3.3534,-3.3604,-3.3638,-3.3697,-3.3787,-3.3865,-3.3879,-3.3911,-3.3932,-3.3945,-3.3829,-3.3815,-3.3801,-3.3778,-3.3938,-3.3938,-3.4062,-3.4064,-3.4064]}]]